Other Public Products
Issued by NWS Charleston, SC

Current Version | Previous Version | Text Only | Print | Product List | Glossary Off
Versions: 1 2 3 4 5 6 7 8 9 10 11 12 13 14 15 16 17 18 19 20 21 22 23 24 25 26 27 28 29 30 31 32 33 34 35 36 37 38 39 40 41 42 43 44 45 46 47 48 49 50
000 FPUS82 KCHS 191627 OPUCHS TEST...KCHS/KSAV Gateway Observations...TEST National Weather Service Charleston SC 1100 AM EST SUN NOV 19 2017 NOTE: "fair" indicates few or no clouds below 12,000 feet with no significant weather and/or obstructions to visibility. SCZ050-WAZ558-NCZ071-TXZ119-213-PAZ071-DCZ001-FLZ074-172-MI076- NYZ176-178-MAZ016-IL014-TNZ027-NJZ106-GAZ044-MD014-191700- ...Gateway Observations for Charleston International... CITY SKY/WX TMP DP RH WIND PRES REMARKS Chas Airport MOSUNNY 65 47 52 NW16G23 29.86S Seattle CLOUDY 44 29 55 SE13 29.96F Charlotte SUNNY 56 32 40 NW8 29.90R Dallas DFW PTSUNNY 53 33 46 VRB3 30.39R Dallas Love MOSUNNY 53 36 52 CALM 30.41R Philladelphia PTSUNNY 53 32 44 W28G37 29.58R Wash National PTSUNNY 51 33 50 NW20G32 29.74R Baltimore PTSUNNY 49 33 54 W17G30 29.69R Miami SUNNY 80 63 55 W6 29.98F Detroit CLOUDY 36 30 79 W14 29.85R WCI 27 Newark PTSUNNY 51 32 48 W24G39 29.45R Laguardia PTSUNNY 51 33 50 W32G41 29.43R J F K PTSUNNY 53 35 50 NW30G39 29.44R Boston Logan LGT RAIN 59 55 87 SW24G31 29.12F Ft. Lauderdale SUNNY 78 63 59 VRB6 29.97F Chicago O`Hare MOSUNNY 31 19 61 W10 30.03R WCI 22 Chicago Midway MOSUNNY 33 20 58 NW12 30.04R WCI 24 Houston Bush MOSUNNY 59 35 40 N20 30.35S Houston Hobby SUNNY 58 32 37 NE21 30.34R Nashville MOSUNNY 43 24 47 NW13 30.16R Atlanta MOSUNNY 49 35 58 NW15G23 30.04R $$ GAZ044-118-TXZ119-213-NCZ071-DCZ001-MDZ014-506-PAZ021-071-NJZ106- NYZ176-178-MAZ106-OHZ011-021-055-MIZ076-KYZ091-ILZ014-INZ047- MNZ060-ONZ431-191700- ...Gateway Observations for Savannah International... CITY SKY/WX TMP DP RH WIND PRES REMARKS Savannah Arpt MOSUNNY 62 43 49 NW16 29.93S Atlanta MOSUNNY 49 35 58 NW15G23 30.04R Charlotte SUNNY 56 32 40 NW8 29.90R Dallas DFW PTSUNNY 53 33 46 VRB3 30.39R Houston Bush MOSUNNY 59 35 40 N20 30.35S Wash National PTSUNNY 51 33 50 NW20G32 29.74R Wash Dulles PTSUNNY 49 31 49 NW20G33 29.73R Baltimore PTSUNNY 49 33 54 W17G30 29.69R Philadelphia PTSUNNY 53 32 44 W28G37 29.58R Newark PTSUNNY 51 32 48 W24G39 29.45R Laguardia PTSUNNY 51 33 50 W32G41 29.43R J F K PTSUNNY 53 35 50 NW30G39 29.44R Boston LGT RAIN 59 55 87 SW24G31 29.12F Pittsburg CLOUDY 38 31 76 W13 29.80R WCI 30 Akron PTSUNNY 38 27 64 NW16G24 29.83R WCI 29 Cleveland CLOUDY 39 28 64 W15G26 29.86R WCI 31 Cincinnati CLOUDY 38 31 76 W21 30.02R WCI 28 Columbus CLOUDY 39 33 78 W18G24 29.94R WCI 30 Detroit CLOUDY 36 30 79 W14 29.85R WCI 27 Chicago O`Hare MOSUNNY 31 19 61 W10 30.03R WCI 22 Minneapolis PTSUNNY 23 13 65 SW8 30.07F WCI 14 Indianapolis PTSUNNY 34 26 72 W15 30.07R WCI 24 Toronto Canada MOSUNNY 39 27 60 NW26G33 29.63R WCI 28 $$

USA.gov is the U.S. government's official web portal to all federal, state and local government web resources and services.